Weather History for Cleveland, OH

Change the Weather History Date:

Sunday, February 17, 2013

  Actual Average Record
Temperature  
Mean Temperature 15 °F 31 °F  
Max Temperature 22 °F 38 °F 62 °F (1911)
Min Temperature 7 °F 24 °F -7 °F (1885)
Degree Days  
Heating Degree Days 50 34  
Month to date heating degree days 647 602  
Since 1 July heating degree days 3793 3854  
Cooling Degree Days 0 0  
Month to date cooling degree days 0 0  
Year to date cooling degree days 0 0  
Moisture  
Dew Point 10 °F    
Average Humidity 65    
Maximum Humidity 77    
Minimum Humidity 52    
Precipitation  
Precipitation T in 0.08 in 1.00 in (1961)
Month to date precipitation 0.98 1.38  
Year to date precipitation 3.15 4.10  
Snow  
Snow T in 0.50 in - ()
Month to date snowfall 14.4 9.2  
Since 1 July snowfall 35.3 46.5  
Snow Depth 3.00 in    
Sea Level Pressure  
Sea Level Pressure 30.14 in    
Wind  
Wind Speed 11 mph (NW)    
Max Wind Speed 18 mph    
Max Gust Speed 24 mph    
Visibility 8 miles    
Events Snow    
T = Trace of Precipitation, MM = Missing Value Source: NWS Daily Summary

Daily Weather History Graph

Daily Weather History Graph

Search for Another Location

Airport:

Trip Planner

Search our weather history database for the weather conditions in past years. The results will help you decide how hot, cold, wet, or windy it might be!

Date:

Astronomy

Feb. 17, 2013 Rise Set
Actual Time 7:19 AM EST 6:04 PM EST
Civil Twilight 6:51 AM EST 6:32 PM EST
Nautical Twilight 6:18 AM EST 7:04 PM EST
Astronomical Twilight 5:46 AM EST 7:36 PM EST
Moon 11:05 AM EST (2/17) 1:03 AM EST (2/17)
Length of Visible Light 11h 41m
Length of Day
10h 44m
Waxing Crescent, 49% of the Moon is Illuminated
Feb 17
Waxing Crescent
Feb 17
First Quarter
Feb 25
Full
Mar 4
Last Quarter
Mar 11
New

Hourly Weather History & Observations

Time (EST) Temp. Windchill Dew Point Humidity Pressure Visibility Wind Dir Wind Speed Gust Speed Precip Events Conditions
12:11 AM 19.9 °F 7.9 °F 14.0 °F 78% 30.00 in 5.0 mi NW 11.5 mph - 0.00 in Snow Light Snow
12:31 AM 19.9 °F 7.9 °F 14.0 °F 78% 30.00 in 4.0 mi NW 11.5 mph - 0.00 in Snow Light Snow
12:51 AM 19.9 °F 7.3 °F 12.9 °F 74% 30.04 in 4.0 mi NW 12.7 mph - 0.00 in Snow Light Blowing Snow
1:08 AM 19.9 °F 7.9 °F 12.9 °F 74% 30.00 in 7.0 mi WNW 11.5 mph - 0.00 in Snow Light Snow
1:51 AM 19.9 °F 6.7 °F 12.9 °F 74% 30.04 in 7.0 mi WNW 13.8 mph - 0.00 in Snow Light Snow
2:51 AM 19.9 °F 7.9 °F 12.9 °F 74% 30.05 in 3.0 mi WNW 11.5 mph - 0.00 in Snow Light Snow
3:51 AM 19.0 °F 8.2 °F 12.9 °F 77% 30.06 in 10.0 mi WNW 9.2 mph - 0.00 in   Overcast
4:36 AM 19.0 °F 4.5 °F 12.0 °F 74% 30.03 in 10.0 mi WNW 16.1 mph - N/A   Overcast
4:51 AM 19.0 °F 5.6 °F 12.9 °F 77% 30.07 in 7.0 mi WNW 13.8 mph - 0.00 in Snow Light Snow
5:04 AM 19.0 °F 6.1 °F 12.9 °F 77% 30.04 in 6.0 mi NW 12.7 mph - 0.00 in Snow Light Snow
5:33 AM 19.0 °F 6.1 °F 12.9 °F 77% 30.04 in 5.0 mi WNW 12.7 mph - 0.00 in Snow Light Snow
5:51 AM 19.0 °F 8.2 °F 12.9 °F 77% 30.08 in 9.0 mi WNW 9.2 mph - 0.00 in Snow Light Snow
6:51 AM 19.0 °F 7.5 °F 14.0 °F 81% 30.09 in 4.0 mi NW 10.4 mph - 0.00 in Snow Light Snow
7:02 AM 19.0 °F 4.0 °F 15.1 °F 85% 30.06 in 1.8 mi NNW 17.3 mph - 0.00 in Snow Light Snow
7:15 AM 18.0 °F 4.2 °F 15.1 °F 88% 30.07 in 2.5 mi NNW 13.8 mph - 0.00 in Snow Light Snow
7:18 AM 18.0 °F 3.1 °F 15.1 °F 88% 30.07 in 3.0 mi NNW 16.1 mph - 0.00 in Snow Light Snow
7:51 AM 18.0 °F 3.6 °F 14.0 °F 84% 30.13 in 9.0 mi North 15.0 mph - 0.00 in   Overcast
8:51 AM 18.0 °F 4.2 °F 10.9 °F 74% 30.15 in 10.0 mi NNW 13.8 mph - N/A   Overcast
9:51 AM 19.0 °F 5.6 °F 10.9 °F 71% 30.17 in 10.0 mi NW 13.8 mph - N/A   Overcast
10:51 AM 19.0 °F 5.0 °F 10.0 °F 68% 30.19 in 10.0 mi NW 15.0 mph - N/A   Overcast
11:24 AM 19.9 °F 7.9 °F 7.0 °F 57% 30.17 in 10.0 mi NW 11.5 mph - N/A   Overcast
11:51 AM 21.0 °F 8.1 °F 7.0 °F 55% 30.21 in 10.0 mi WNW 13.8 mph - N/A   Mostly Cloudy
12:51 PM 21.0 °F 7.1 °F 7.0 °F 55% 30.21 in 10.0 mi NW 16.1 mph - N/A   Mostly Cloudy
1:51 PM 19.0 °F 5.0 °F 6.1 °F 57% 30.20 in 10.0 mi WNW 15.0 mph - N/A   Mostly Cloudy
2:51 PM 19.9 °F 6.7 °F 6.1 °F 55% 30.21 in 10.0 mi NW 13.8 mph - N/A   Mostly Cloudy
3:51 PM 21.0 °F 8.1 °F 7.0 °F 55% 30.21 in 10.0 mi West 13.8 mph 23.0 mph N/A   Mostly Cloudy
4:51 PM 21.9 °F 9.2 °F 7.0 °F 53% 30.22 in 10.0 mi West 13.8 mph - N/A   Mostly Cloudy
5:51 PM 19.9 °F 9.3 °F 7.0 °F 57% 30.24 in 10.0 mi WNW 9.2 mph - N/A   Scattered Clouds
6:51 PM 19.9 °F 13.4 °F 7.0 °F 57% 30.25 in 10.0 mi NW 4.6 mph - N/A   Mostly Cloudy
7:51 PM 18.0 °F - 7.0 °F 62% 30.26 in 10.0 mi Calm Calm - N/A   Scattered Clouds
8:51 PM 18.0 °F 9.8 °F 7.0 °F 62% 30.27 in 10.0 mi SSW 5.8 mph - N/A   Partly Cloudy
9:51 PM 15.1 °F 6.4 °F 5.0 °F 64% 30.28 in 10.0 mi SSW 5.8 mph - N/A   Clear
10:51 PM 12.9 °F 3.8 °F 5.0 °F 71% 30.29 in 10.0 mi South 5.8 mph - N/A   Partly Cloudy